Radiation Dose measured at exhaust stack monitor of Fukushima Daiichi Nuclear Power Station
Date,Time,Unit 5 6 shared exhaust cylinders,Wind Direction,Wind Velocity(m/s)
2024/03/12,00:00,3.6,south-southwest,6.1
2024/03/12,00:10,3.8,south-southwest,6.1
2024/03/12,00:20,3.7,south-southwest,5.2
2024/03/12,00:30,3.8,south-southwest,4.3
2024/03/12,00:40,3.8,south-southwest,3.4
2024/03/12,00:50,3.9,south-southwest,2.7
2024/03/12,01:00,3.9,south,2.5
2024/03/12,01:10,3.8,south,2.3
2024/03/12,01:20,3.8,southwest,1.5
2024/03/12,01:30,3.7,south-southwest,2.3
2024/03/12,01:40,3.6,south-southwest,2.0
2024/03/12,01:50,3.9,south-southwest,2.6
2024/03/12,02:00,3.8,south-southwest,2.5
2024/03/12,02:10,4.0,south,1.4
2024/03/12,02:20,3.9,south,1.4
2024/03/12,02:30,3.9,south-southwest,1.4
2024/03/12,02:40,3.9,south-southwest,2.2
2024/03/12,02:50,3.9,south-southwest,2.6
2024/03/12,03:00,3.6,south-southwest,2.6
2024/03/12,03:10,3.8,south,3.1
2024/03/12,03:20,3.9,south-southwest,2.1
2024/03/12,03:30,3.8,south-southwest,2.3
2024/03/12,03:40,3.8,southwest,2.0
2024/03/12,03:50,3.9,southwest,2.0
2024/03/12,04:00,3.8,southwest,2.3
2024/03/12,04:10,3.6,south-southwest,2.9
2024/03/12,04:20,4.0,south-southwest,1.7
2024/03/12,04:30,3.6,west,2.3
2024/03/12,04:40,3.7,west-northwest,2.2
2024/03/12,04:50,3.8,west-northwest,2.2
2024/03/12,05:00,4.0,northwest,1.9
2024/03/12,05:10,3.7,northwest,2.0
2024/03/12,05:20,3.8,northwest,2.0
2024/03/12,05:30,3.7,north-northwest,1.9
2024/03/12,05:40,3.7,north-northwest,1.7
2024/03/12,05:50,3.7,-,CALM
2024/03/12,06:00,3.6,east-southeast,0.6
2024/03/12,06:10,3.9,southeast,1.2
2024/03/12,06:20,3.8,east-southeast,1.2
2024/03/12,06:30,3.7,south-southeast,0.6
2024/03/12,06:40,3.8,southeast,0.6
2024/03/12,06:50,3.8,north,0.6
2024/03/12,07:00,3.9,north,1.2
2024/03/12,07:10,3.8,north,2.9
2024/03/12,07:20,3.9,north,2.2
2024/03/12,07:30,3.6,north,1.1
2024/03/12,07:40,3.6,east-southeast,0.8
2024/03/12,07:50,3.8,south-southeast,1.2
2024/03/12,08:00,3.9,south-southeast,2.0
2024/03/12,08:10,3.8,south-southeast,2.3
2024/03/12,08:20,4.1,south-southeast,1.7
2024/03/12,08:30,3.8,east-southeast,1.5
2024/03/12,08:40,3.6,east,0.9
2024/03/12,08:50,3.7,east-northeast,0.8
2024/03/12,09:00,3.6,south-southeast,0.6
2024/03/12,09:10,3.8,south-southwest,0.8
2024/03/12,09:20,3.7,south-southeast,1.2
2024/03/12,09:30,3.8,southwest,1.2
2024/03/12,09:40,3.8,south-southwest,1.2
2024/03/12,09:50,3.8,-,CALM
2024/03/12,10:00,3.8,-,CALM
2024/03/12,10:10,3.8,east-southeast,1.2
2024/03/12,10:20,3.7,southeast,1.5
2024/03/12,10:30,3.8,southeast,2.3
2024/03/12,10:40,4.0,southeast,2.0
2024/03/12,10:50,3.8,southeast,1.8
2024/03/12,11:00,3.8,southeast,1.5
2024/03/12,11:10,3.9,southeast,1.4
2024/03/12,11:20,3.8,south-southeast,1.7
2024/03/12,11:30,3.8,south,2.8
2024/03/12,11:40,3.8,south,3.2
2024/03/12,11:50,3.8,south-southwest,3.8
2024/03/12,12:00,3.9,south-southwest,4.4
2024/03/12,12:10,4.0,south-southwest,3.6
2024/03/12,12:20,3.9,southwest,2.3
2024/03/12,12:30,3.9,west-southwest,1.2
2024/03/12,12:40,3.7,northwest,0.9
2024/03/12,12:50,3.9,north-northwest,1.7
2024/03/12,13:00,3.8,north-northwest,2.0
2024/03/12,13:10,3.8,north-northwest,2.2
2024/03/12,13:20,3.9,north-northwest,2.3
2024/03/12,13:30,3.9,north-northwest,1.7
2024/03/12,13:40,3.7,north-northwest,2.3
2024/03/12,13:50,3.8,north-northwest,3.2
2024/03/12,14:00,3.8,north-northwest,3.7
2024/03/12,14:10,3.8,north-northwest,3.8
2024/03/12,14:20,3.7,north-northwest,4.2
2024/03/12,14:30,3.8,north-northwest,4.7
2024/03/12,14:40,3.9,north-northwest,3.9
2024/03/12,14:50,3.9,north-northwest,5.1
2024/03/12,15:00,3.6,north-northwest,4.6
2024/03/12,15:10,3.6,north-northwest,4.5
2024/03/12,15:20,3.9,north-northwest,5.3
2024/03/12,15:30,3.8,north-northwest,4.8
2024/03/12,15:40,3.7,north-northwest,4.4
2024/03/12,15:50,3.8,north-northwest,4.4
2024/03/12,16:00,3.7,north-northwest,5.6
2024/03/12,16:10,4.0,north-northwest,5.6
2024/03/12,16:20,3.7,north-northwest,4.4
2024/03/12,16:30,3.8,north-northwest,5.1
2024/03/12,16:40,3.8,north-northwest,5.3
2024/03/12,16:50,3.9,north-northwest,5.8
2024/03/12,17:00,3.8,north-northwest,7.0
2024/03/12,17:10,3.8,north-northwest,7.3
2024/03/12,17:20,3.8,north-northwest,8.5
2024/03/12,17:30,3.9,north-northwest,8.9
2024/03/12,17:40,3.9,north-northwest,7.3
2024/03/12,17:50,3.8,north-northwest,8.3
2024/03/12,18:00,3.9,north-northwest,8.3
2024/03/12,18:10,3.8,north,8.7
2024/03/12,18:20,3.8,north-northwest,10.2
2024/03/12,18:30,3.7,north-northwest,9.5
2024/03/12,18:40,4.0,northwest,9.3
2024/03/12,18:50,3.6,north-northwest,9.6
2024/03/12,19:00,3.8,-,CALM
2024/03/12,19:10,4.0,-,CALM
2024/03/12,19:20,3.8,-,CALM
2024/03/12,19:30,3.8,-,CALM
2024/03/12,19:40,4.0,north,9.3
2024/03/12,19:50,3.8,-,CALM
2024/03/12,20:00,3.8,-,CALM
2024/03/12,20:10,3.8,-,CALM
2024/03/12,20:20,3.8,-,CALM
2024/03/12,20:30,3.8,-,CALM
2024/03/12,20:40,3.8,-,CALM
2024/03/12,20:50,4.1,-,CALM
2024/03/12,21:00,3.8,northwest,5.3
2024/03/12,21:10,3.8,north-northwest,13.6
2024/03/12,21:20,3.6,north-northwest,11.8
2024/03/12,21:30,3.8,north-northwest,11.6
2024/03/12,21:40,3.9,north-northwest,12.5
2024/03/12,21:50,3.8,north-northwest,12.1
2024/03/12,22:00,3.8,north-northwest,13.8
2024/03/12,22:10,3.8,north-northwest,10.8
2024/03/12,22:20,3.8,north-northwest,12.7
2024/03/12,22:30,3.7,north-northwest,13.5
2024/03/12,22:40,3.8,north-northwest,12.7
2024/03/12,22:50,3.9,north-northwest,11.7
2024/03/12,23:00,3.7,north-northwest,13.5
2024/03/12,23:10,3.8,north-northwest,12.0
2024/03/12,23:20,4.0,north-northwest,11.6
2024/03/12,23:30,3.8,north-northwest,14.2
2024/03/12,23:40,3.8,north-northwest,11.8
2024/03/12,23:50,3.8,north-northwest,12.2
